Location: Unspecified
(0.0000°N, 0.0000°E)
Time: 01:10:17
(UTC+00:00)

A-11 Canister half - Visible Passes

Search period start: 27 July 2016 00:00
Search period end: 06 August 2016 00:00
Orbit: 1517 x 1683 km, 47.2° (Epoch: 25 July)

Date Brightness Start Highest point End Pass type
(mag) Time Alt. Az. Time Alt. Az. Time Alt. Az.
27 Jul 9.4 18:44:32 10° NNW 18:53:52 48° NE 19:01:28 15° ESE visible
27 Jul 9.9 20:50:01 10° WNW 20:58:36 36° SW 20:59:43 35° SW visible
28 Jul 10.9 05:32:48 10° S 05:39:06 19° SE 05:45:27 10° E visible
28 Jul 9.5 18:21:44 10° NNW 18:30:57 44° NE 18:39:51 10° ESE visible
28 Jul 9.8 20:26:51 10° WNW 20:35:41 40° SW 20:38:37 33° SSW visible
29 Jul 10.9 05:10:25 10° S 05:16:08 17° SE 05:21:56 10° E visible
29 Jul 9.8 20:03:43 10° WNW 20:12:47 44° SW 20:17:33 27° S visible
30 Jul 11.0 04:48:06 10° SSE 04:53:10 15° SE 04:58:16 10° E visible
30 Jul 9.7 19:40:37 10° WNW 19:49:53 48° SW 19:56:30 19° SSE visible
31 Jul 11.0 04:25:56 10° SSE 04:30:11 14° SE 04:34:29 10° ESE visible
31 Jul 9.6 19:17:32 10° NW 19:26:59 52° SW 19:35:28 12° SSE visible
01 Aug 11.0 04:04:00 10° SSE 04:07:12 12° SE 04:10:25 10° ESE visible
01 Aug 9.6 18:54:29 10° NW 19:04:04 57° SW 19:13:22 10° SSE visible
02 Aug 11.1 03:42:47 10° SE 03:44:12 10° SE 03:45:38 10° SE visible
02 Aug 9.5 05:40:10 10° SSW 05:49:32 65° SE 05:59:12 10° NE visible
02 Aug 9.5 18:31:28 10° NW 18:41:10 62° SW 18:50:34 10° SSE visible
03 Aug 9.5 05:17:22 10° SSW 05:26:38 60° SE 05:36:11 10° NE visible
03 Aug 11.1 20:20:57 10° WSW 20:23:34 11° SW 20:26:11 10° SSW visible
04 Aug 9.6 04:54:36 10° SSW 05:03:44 55° SE 05:13:09 10° NE visible
04 Aug 11.0 19:56:40 10° WSW 20:00:34 13° SW 20:04:27 10° SSW visible
05 Aug 9.7 04:32:38 13° SSW 04:40:50 50° SE 04:50:05 10° ENE visible
05 Aug 11.0 19:32:46 10° WSW 19:37:35 15° SW 19:42:22 10° SSW visible
